Location: Arleux
(50.3632°N, 2.8721°E)
Time: 07:22:55
(UTC+00:00)

Meteor 1-23 Rocket - Pass Details

Date: 15 December 2019
Orbit: 840 x 885 km, 81.3° (Epoch: 17 January)

Event Time Altitude Azimuth Distance (km) Brightness Sun altitude
Rises 06:27:38 0° 344° (NNW) 3,498 7.0 -11.1°
Reaches altitude 10° 06:30:09 10° 339° (NNW) 2,550 6.3 -10.7°
Maximum altitude 06:35:43 50° 266° (W) 1,108 4.5 -9.9°
Drops below altitude 10° 06:41:11 10° 193° (SSW) 2,507 6.8 -9.1°
Sets 06:43:39 0° 188° (S) 3,433 7.6 -8.7°
